Regional Weather Roundup
Issued by NWS Little Rock, AR

Home | Current Version | Previous Version | Graphics & Text | Print | Product List | Glossary On
Versions: 1 2 3 4 5 6 7 8 9 10 11 12 13 14 15 16 17 18 19 20 21 22 23 24 25 26 27 28 29 30 31 32 33 34 35 36 37 38 39 40 41 42 43 44 45 46 47 48 49 50
000
ASUS44 KLZK 012105
RWRLZK

WEATHER ROUNDUP FOR ARKANSAS
NATIONAL WEATHER SERVICE LITTLE ROCK AR
400 PM CDT SUN MAY 01 2016

NOTE: "FAIR" INDICATES FEW OR NO CLOUDS BELOW 12,000 FEET WITH NO
SIGNIFICANT WEATHER AND/OR OBSTRUCTIONS TO VISIBILITY.

ARZ001-003-010-029-012200-
NORTHWEST ARKANSAS

CITY           SKY/WX    TMP DP  RH WIND       PRES   REMARKS
FAYETTEVILLE   SUNNY     67  49  52 N8        30.01S
FORT SMITH     SUNNY     72  47  40 VRB7G18   29.99F
HARRISON       SUNNY     71  47  42 W12       29.98F
BENTONVILLE    SUNNY     64  45  48 NW8       30.04S
ROGERS         SUNNY     64  46  52 NW10      30.03S
SILOAM SPGS    SUNNY     64  45  48 NW12      30.04S
HIGHFILL       SUNNY     65  47  52 NW12      30.03S
SPRINGDALE     SUNNY     66  48  52 N9        30.04S
$$

ARZ004-005-016-012200-
NORTH CENTRAL ARKANSAS

CITY           SKY/WX    TMP DP  RH WIND       PRES   REMARKS
BATESVILLE     SUNNY     77  57  50 W6        29.94S
FLIPPIN        SUNNY    N/A N/A N/A NW6       29.93F
MTN HOME       SUNNY     73  49  42 VRB6      29.95F
$$

ARZ040-041-012200-
WEST CENTRAL ARKANSAS

CITY           SKY/WX    TMP DP  RH WIND       PRES   REMARKS
MENA           SUNNY     77  45  31 N6        29.98F
MOUNT IDA      SUNNY     78  51  38 VRB6      29.94F
$$

ARZ009-017-025-026-028-012200-
NORTHEAST ARKANSAS

CITY           SKY/WX    TMP DP  RH WIND       PRES   REMARKS
CORNING          N/A     77  63  61 W8        29.92S
JONESBORO      SUNNY     78  62  57 NW12      29.92S
NEWPORT        SUNNY     78  62  57 NW7       29.93F
WALNUT RIDGE   SUNNY     77  57  50 W8        29.92F
BLYTHEVILLE    SUNNY     79  66  64 W9        29.91F
$$

ARZ022-023-033-042-044-012200-
CENTRAL ARKANSAS

CITY           SKY/WX    TMP DP  RH WIND       PRES   REMARKS
LITTLE ROCK    MOSUNNY   81  57  43 VRB6      29.93F
N LITTLE ROCK    N/A     78  60  52 N5        29.92F
JACKSONVILLE   SUNNY     80  61  52 NW6       29.92F
SEARCY         MOSUNNY   80  65  59 VRB5      29.94S
HOT SPRINGS    SUNNY     79  55  43 NW8       29.94F
RUSSELLVILLE   SUNNY     76  51  41 W5        29.95F
$$

ARZ036-012200-
EAST ARKANSAS

CITY           SKY/WX    TMP DP  RH WIND       PRES   REMARKS
WEST MEMPHIS   MOSUNNY   77  66  68 SW6       29.91F
$$

ARZ050-053-066-070-073-012200-
SOUTHWEST ARKANSAS

CITY           SKY/WX    TMP DP  RH WIND       PRES   REMARKS
ARKADELPHIA    MOCLDY    81  68  64 VRB5      29.92F
CAMDEN         MOSUNNY   84  66  54 NW6       29.90F HX  86
TEXARKANA      SUNNY     80  60  50 VRB3      29.93F
EL DORADO      SUNNY     80  69  69 N7        29.90F
DE QUEEN       SUNNY     80  53  39 NE7       29.92F
$$

ARZ056-057-069-012200-
SOUTHEAST ARKANSAS

CITY           SKY/WX    TMP DP  RH WIND       PRES   REMARKS
PINE BLUFF     MOSUNNY   80  66  62 N10       29.92F
STUTTGART      CLOUDY    79  64  61 N8        29.94S
MONTICELLO     MOSUNNY   83  69  62 E5        29.89F HX  86

$$





USA.gov is the U.S. government's official web portal to all federal, state and local government web resources and services.